Location: Demre
(36.2444°N, 29.9850°E)
Time: 05:53:37
(UTC+00:00)

MOS 1 - Pass Details

Date: 11 March 2026
Orbit: 877 x 889 km, 98.8° (Epoch: 21 April)

Event Time Altitude Azimuth Distance (km) Brightness Sun altitude
Exits shadow 18:33:35 70° 324° (NW) 935 4.4 -30.5°
Drops below altitude 10° 18:38:36 10° 345° (NNW) 2,541 7.1 -31.5°
Sets 18:41:00 0° 346° (NNW) 3,482 7.8 -31.9°
